Simultaneous Nadir Overpasses (SNOs) Predictions

Prediction of SNOs between GOES-17 and METOP-C Satellite Orbit:

Table of predicted SNOs for the next 14.0 days since TLE Epoch: 1/29/2022
Index Date Time (GOES-17) GOES-17 Lat,Lon METOP-C Lat,Lon Distance(km) Time Diff (sec)
1 01/29/2022 06:48:44 0.00,-137.22 -0.36,-138.93 195.46 80
2 01/30/2022 06:25:25 0.01,-137.21 0.74,-133.94 373.28 80
3 01/31/2022 18:46:55 0.00,-137.21 0.30,-138.49 145.45 80
4 02/01/2022 18:23:35 0.01,-137.21 -0.81,-133.49 423.42 80
5 02/03/2022 06:45:17 -0.02,-137.19 -0.23,-138.09 101.97 80
6 02/04/2022 06:21:57 -0.02,-137.19 0.88,-133.09 466.70 80
7 02/05/2022 18:43:28 0.02,-137.19 0.10,-137.66 52.52 80
8 02/08/2022 06:39:10 -0.02,-137.16 -0.02,-137.26 10.73 80
9 02/10/2022 18:40:01 0.02,-137.14 -0.04,-136.81 37.06 80
